Regional Weather Roundup
Issued by NWS Albany, NY

Home | Current Version | Previous Version | Text Only | Print | Product List | Glossary On
Versions: 1 2 3 4 5 6 7 8 9 10 11 12 13 14 15 16 17 18 19 20 21 22 23 24 25 26 27
000
ASUS41 KALY 190710
RWRALY

NEW YORK STATE HOURLY WEATHER ROUNDUP
NATIONAL WEATHER SERVICE ALBANY NY
300 AM EDT THU OCT 19 2017

NOTE: "FAIR" INDICATES FEW OR NO CLOUDS BELOW 12,000 FEET WITH NO
SIGNIFICANT WEATHER AND/OR NO OBSTRUCTIONS TO VISIBILITY.

NYZ032-033-038>043-046>054-057>066-NYZ062>081-082-084-190800-
EAST


CITY           SKY/WX    TMP DP  RH WIND       PRES   REMARKS
ALBANY         CLEAR     48  44  86 CALM      30.22S
GLENS FALLS    FOG       37  36  96 CALM      30.20F VSB 3/4
POUGHKEEPSIE   CLEAR     44  41  89 CALM      30.24S
NEWBURGH       CLEAR     48  45  87 CALM      30.25F
MONTGOMERY     CLEAR     44  43  96 CALM      30.24F
WHITE PLAINS   CLEAR     50  46  86 CALM      30.25S
ISLIP          CLEAR     53  51  93 SW3       30.27S
NEW YORK CITY  CLEAR     61  45  55 SW6       30.25F
CENTRAL PARK   CLEAR     60  45  57 W6        30.29S
$$

NYZ005>009-017-018-044>046-055-056-190800-
CENTRAL


CITY           SKY/WX    TMP DP  RH WIND       PRES   REMARKS
FULTON           N/A    N/A N/A N/A MISG      30.13F
SYRACUSE       CLEAR     55  44  66 SE7       30.14F
ROME           PTCLDY    46  43  89 SE5       30.19S
ELMIRA         CLEAR     41  40  96 CALM      30.19S
BINGHAMTON     CLEAR     51  41  68 S7        30.20F
MONTICELLO     CLEAR     41  40  96 N5        30.26F
$$

NYZ026>034-041>043-087-190800-
NORTH


CITY           SKY/WX    TMP DP  RH WIND       PRES   REMARKS
WATERTOWN      CLEAR     56  45  66 S6        30.10F
FORT DRUM      NOT AVBL
OGDENSBURG     FAIR      53  48  84 S6        30.08F
MASSENA        CLEAR     53  47  79 SW7       30.08F
SARANAC LAKE   CLEAR     41  39  93 SW5       30.14F
PLATTSBURGH    CLEAR     43  41  93 CALM      30.13S
$$

NYZ001>004-010>016-019>021-085-190800-
WEST


CITY           SKY/WX    TMP DP  RH WIND       PRES   REMARKS
NIAGARA FALLS    N/A     56  45  66 S7        30.10S
BUFFALO        CLEAR     55  42  61 S14       30.12S
DUNKIRK        CLEAR     54  41  61 S12       30.15S
JAMESTOWN      CLEAR     48  39  71 S6        30.18S
WELLSVILLE     CLEAR     54  38  54 SW9       30.20S
ROCHESTER      CLEAR     56  42  59 SW13      30.12S
PENN YAN       CLEAR     55  42  61 SW10      30.15S
$$

             KEY
       WCI = WIND CHILL INDEX
       VSB = VISIBILITY
       HX  = HEAT INDEX
$$




USA.gov is the U.S. government's official web portal to all federal, state and local government web resources and services.